Brownsville, TX

12:24 AM CDT on August 24, 2017 (GMT -0500)
Brownsville-South Padre I International

Weather History for KBRO - April, 2013

Change the Weather History Date:

Wednesday, April 10, 2013

  Actual Average Record
Temperature  
Mean Temperature 78 °F 74 °F  
Max Temperature 93 °F 83 °F 97 °F (1878)
Min Temperature 62 °F 65 °F 41 °F (1914)
Degree Days  
Heating Degree Days 0 0  
Month to date heating degree days 1 6  
Since 1 July heating degree days 318 552  
Cooling Degree Days 13 9  
Month to date cooling degree days 93 85  
Year to date cooling degree days 480 400  
Growing Degree Days 28 (Base 50)    
Moisture  
Dew Point 70 °F    
Average Humidity 75    
Maximum Humidity 100    
Minimum Humidity 49    
Precipitation  
Precipitation 0.01 in 0.05 in 1.50 in (1970)
Month to date precipitation 0.01 0.50  
Year to date precipitation 1.77 4.08  
Sea Level Pressure  
Sea Level Pressure 29.65 in    
Wind  
Wind Speed 17 mph (SSE)    
Max Wind Speed 32 mph    
Max Gust Speed 38 mph    
Visibility 9 miles    
Events Rain    
T = Trace of Precipitation, MM = Missing Value Source: NWS Daily Summary

Daily Weather History Graph

Daily Weather History Graph

Search for Another Location

Airport or City:

Trip Planner

Search our weather history database for the weather conditions in past years. The results will help you decide how hot, cold, wet, or windy it might be!

Date:

Astronomy

Apr. 10, 2013 Rise Set
Actual Time 7:11 AM CDT 7:50 PM CDT
Civil Twilight 6:47 AM CDT 8:14 PM CDT
Nautical Twilight 6:20 AM CDT 8:41 PM CDT
Astronomical Twilight 5:52 AM CDT 9:09 PM CDT
Moon 7:11 AM CDT (4/10) 8:21 PM CDT (4/10)
Length of Visible Light 13h 26m
Length of Day
12h 39m
New Moon, 0% of the Moon is Illuminated
Apr 10
New Moon
Apr 18
First Quarter
Apr 25
Full
May 2
Last Quarter
May 9
New

Hourly Weather History & Observations

Time (CDT) Temp. Heat Index Dew Point Humidity Pressure Visibility Wind Dir Wind Speed Gust Speed Precip Events Conditions
12:53 AM 75.9 °F - 72.0 °F 87% 29.67 in 9.0 mi SSE 23.0 mph 35.7 mph N/A   Overcast
1:53 AM 75.0 °F - 72.0 °F 90% 29.66 in 9.0 mi SSE 24.2 mph 31.1 mph N/A   Overcast
2:53 AM 75.0 °F - 72.0 °F 90% 29.64 in 9.0 mi SE 21.9 mph 28.8 mph N/A   Overcast
3:53 AM 73.9 °F - 71.1 °F 91% 29.61 in 9.0 mi SE 18.4 mph 33.4 mph N/A   Overcast
4:41 AM 73.4 °F - 71.6 °F 94% 29.59 in 9.0 mi SE 24.2 mph 31.1 mph N/A   Overcast
4:53 AM 73.9 °F - 71.1 °F 91% 29.60 in 9.0 mi SSE 21.9 mph - N/A   Overcast
5:53 AM 73.9 °F - 71.1 °F 91% 29.61 in 10.0 mi SSE 18.4 mph 24.2 mph N/A   Mostly Cloudy
6:09 AM 73.4 °F - 71.6 °F 94% 29.62 in 10.0 mi SSE 16.1 mph 24.2 mph N/A   Scattered Clouds
6:53 AM 73.9 °F - 71.1 °F 91% 29.62 in 10.0 mi SSE 19.6 mph 26.5 mph N/A   Partly Cloudy
7:12 AM 73.4 °F - 71.6 °F 94% 29.63 in 10.0 mi SSE 17.3 mph - N/A   Mostly Cloudy
7:41 AM 73.4 °F - 71.6 °F 94% 29.62 in 8.0 mi SSE 19.6 mph 28.8 mph N/A   Scattered Clouds
7:53 AM 73.9 °F - 71.1 °F 91% 29.62 in 9.0 mi SSE 19.6 mph - N/A   Clear
8:53 AM 77.0 °F - 71.1 °F 82% 29.65 in 10.0 mi SSE 20.7 mph 31.1 mph N/A   Clear
9:53 AM 82.0 °F 86.3 °F 71.1 °F 69% 29.67 in 10.0 mi South 23.0 mph 31.1 mph N/A   Clear
10:53 AM 84.9 °F 90.1 °F 71.1 °F 63% 29.68 in 10.0 mi South 28.8 mph 38.0 mph N/A   Partly Cloudy
11:53 AM 88.0 °F 93.8 °F 71.1 °F 57% 29.66 in 10.0 mi South 26.5 mph 36.8 mph N/A   Clear
12:53 PM 89.1 °F 95.0 °F 71.1 °F 55% 29.68 in 10.0 mi South 19.6 mph 32.2 mph N/A   Mostly Cloudy
1:37 PM 89.6 °F 96.2 °F 71.6 °F 55% 29.67 in 10.0 mi South 18.4 mph 24.2 mph N/A   Overcast
1:53 PM 91.0 °F 97.6 °F 71.1 °F 52% 29.66 in 10.0 mi South 13.8 mph - N/A   Mostly Cloudy
2:53 PM 91.0 °F 97.6 °F 71.1 °F 52% 29.64 in 10.0 mi SSW 8.1 mph 19.6 mph N/A   Mostly Cloudy
3:53 PM 91.0 °F 95.6 °F 69.1 °F 48% 29.61 in 10.0 mi WSW 4.6 mph - N/A   Partly Cloudy
4:39 PM 87.8 °F 93.8 °F 71.6 °F 58% 29.60 in 10.0 mi SSE 19.6 mph - N/A   Scattered Clouds
4:53 PM 87.1 °F 93.6 °F 72.0 °F 61% 29.59 in 10.0 mi SE 18.4 mph 25.3 mph N/A   Mostly Cloudy
5:44 PM 84.2 °F 89.6 °F 71.6 °F 66% 29.60 in 10.0 mi SSE 16.1 mph - N/A   Overcast
5:53 PM 84.9 °F 90.1 °F 71.1 °F 63% 29.60 in 10.0 mi SSE 19.6 mph - N/A   Mostly Cloudy
6:53 PM 81.0 °F 84.9 °F 71.1 °F 72% 29.61 in 9.0 mi SSE 12.7 mph - N/A   Overcast
7:53 PM 78.1 °F - 72.0 °F 81% 29.64 in 9.0 mi ESE 5.8 mph - N/A   Overcast
8:11 PM 71.6 °F - 64.4 °F 78% 29.67 in 9.0 mi NNE 11.5 mph 24.2 mph N/A   Overcast
8:20 PM 69.8 °F - 64.4 °F 83% 29.67 in 9.0 mi NNE 17.3 mph 24.2 mph N/A   Overcast
8:29 PM 69.8 °F - 64.4 °F 83% 29.68 in 9.0 mi North 15.0 mph 21.9 mph N/A   Overcast
8:53 PM 66.0 °F - 64.0 °F 93% 29.69 in 6.0 mi North 12.7 mph 23.0 mph 0.00 in Rain Light Rain
9:53 PM 64.0 °F - 64.0 °F 100% 29.73 in 6.0 mi North 15.0 mph 21.9 mph 0.01 in Rain Light Rain
10:53 PM 64.0 °F - 62.1 °F 93% 29.74 in 10.0 mi North 17.3 mph 24.2 mph 0.00 in   Overcast
11:53 PM 63.0 °F - 63.0 °F 100% 29.76 in 10.0 mi North 11.5 mph 21.9 mph N/A   Overcast